Time,TemperatureF,DewpointF,PressureIn,WindDirection,WindDirectionDegrees,WindSpeedMPH,WindSpeedGustMPH,Humidity,HourlyPrecipIn,Conditions,Clouds,dailyrainin,SoftwareType,DateUTC
2013-10-14 00:40:00,52.0,-99.9,30.40,NE,40,9.0,11.0,-999,-99.99,,,-99.99,,2013-10-14 05:40:00,
2013-10-14 01:13:00,52.0,-99.9,30.40,NE,40,9.0,11.0,-999,-99.99,,,-99.99,,2013-10-14 06:13:00,
2013-10-14 01:40:00,52.0,-99.9,30.41,NE,40,8.0,10.0,-999,-99.99,,,-99.99,,2013-10-14 06:40:00,
2013-10-14 03:40:00,48.0,-99.9,30.42,NE,40,3.0,5.0,-999,-99.99,,,-99.99,,2013-10-14 08:40:00,
2013-10-14 04:11:00,48.0,-99.9,30.42,NE,40,3.0,5.0,-999,-99.99,,,-99.99,,2013-10-14 09:11:00,
2013-10-14 04:22:00,48.0,-99.9,30.42,NE,40,3.0,5.0,-999,-99.99,,,-99.99,,2013-10-14 09:22:00,
2013-10-14 04:33:00,48.0,-99.9,30.42,NE,40,3.0,5.0,-999,-99.99,,,-99.99,,2013-10-14 09:33:00,
2013-10-14 06:12:00,52.0,-99.9,30.43,NE,40,6.0,7.0,-999,-99.99,,,-99.99,,2013-10-14 11:12:00,
2013-10-14 06:22:00,52.0,-99.9,30.43,NE,40,6.0,7.0,-999,-99.99,,,-99.99,,2013-10-14 11:22:00,
2013-10-14 06:32:00,52.0,-99.9,30.43,NE,40,6.0,7.0,-999,-99.99,,,-99.99,,2013-10-14 11:32:00,
2013-10-14 07:40:00,48.0,-99.9,30.44,North,350,1.0,5.0,-999,-99.99,,,-99.99,,2013-10-14 12:40:00,
2013-10-14 08:11:00,48.0,-99.9,30.44,North,350,1.0,5.0,-999,-99.99,,,-99.99,,2013-10-14 13:11:00,
2013-10-14 08:22:00,48.0,-99.9,30.44,North,350,1.0,5.0,-999,-99.99,,,-99.99,,2013-10-14 13:22:00,
2013-10-14 08:32:00,48.0,-99.9,30.44,North,350,1.0,5.0,-999,-99.99,,,-99.99,,2013-10-14 13:32:00,
2013-10-14 08:40:00,55.0,-99.9,30.44,NE,40,5.0,7.0,-999,-99.99,,,-99.99,,2013-10-14 13:40:00,
2013-10-14 09:40:00,55.0,-99.9,30.42,East,80,7.0,8.0,-999,-99.99,,,-99.99,,2013-10-14 14:40:00,
2013-10-14 10:11:00,55.0,-99.9,30.42,East,80,7.0,8.0,-999,-99.99,,,-99.99,,2013-10-14 15:11:00,
2013-10-14 10:22:00,55.0,-99.9,30.42,East,80,7.0,8.0,-999,-99.99,,,-99.99,,2013-10-14 15:22:00,
2013-10-14 10:33:00,55.0,-99.9,30.42,East,80,7.0,8.0,-999,-99.99,,,-99.99,,2013-10-14 15:33:00,
2013-10-14 11:40:00,56.0,-99.9,30.42,East,90,3.0,7.0,-999,-99.99,,,-99.99,,2013-10-14 16:40:00,
2013-10-14 12:12:00,56.0,-99.9,30.42,East,90,3.0,7.0,-999,-99.99,,,-99.99,,2013-10-14 17:12:00,
2013-10-14 12:23:00,56.0,-99.9,30.42,East,90,3.0,7.0,-999,-99.99,,,-99.99,,2013-10-14 17:23:00,
2013-10-14 12:33:00,56.0,-99.9,30.42,East,90,3.0,7.0,-999,-99.99,,,-99.99,,2013-10-14 17:33:00,
2013-10-14 12:40:00,56.0,-99.9,30.41,East,90,5.0,7.0,-999,-99.99,,,-99.99,,2013-10-14 17:40:00,
2013-10-14 13:13:00,56.0,-99.9,30.41,East,90,5.0,7.0,-999,-99.99,,,-99.99,,2013-10-14 18:13:00,
2013-10-14 13:22:00,56.0,-99.9,30.41,East,90,5.0,7.0,-999,-99.99,,,-99.99,,2013-10-14 18:22:00,
2013-10-14 13:32:00,56.0,-99.9,30.41,East,90,5.0,7.0,-999,-99.99,,,-99.99,,2013-10-14 18:32:00,
2013-10-14 13:40:00,55.0,-99.9,30.39,ESE,110,7.0,8.0,-999,-99.99,,,-99.99,,2013-10-14 18:40:00,
2013-10-14 14:11:00,55.0,-99.9,30.39,ESE,110,7.0,8.0,-999,-99.99,,,-99.99,,2013-10-14 19:11:00,
2013-10-14 14:22:00,55.0,-99.9,30.39,ESE,110,7.0,8.0,-999,-99.99,,,-99.99,,2013-10-14 19:22:00,
2013-10-14 14:32:00,55.0,-99.9,30.39,ESE,110,7.0,8.0,-999,-99.99,,,-99.99,,2013-10-14 19:32:00,
2013-10-14 14:40:00,56.0,-99.9,30.35,East,100,7.0,10.0,-999,-99.99,,,-99.99,,2013-10-14 19:40:00,
2013-10-14 15:11:00,56.0,-99.9,30.35,East,100,7.0,10.0,-999,-99.99,,,-99.99,,2013-10-14 20:11:00,
2013-10-14 15:22:00,56.0,-99.9,30.35,East,100,7.0,10.0,-999,-99.99,,,-99.99,,2013-10-14 20:22:00,
2013-10-14 15:32:00,56.0,-99.9,30.35,East,100,7.0,10.0,-999,-99.99,,,-99.99,,2013-10-14 20:32:00,
2013-10-14 15:40:00,56.0,-99.9,30.34,ESE,120,7.0,10.0,-999,-99.99,,,-99.99,,2013-10-14 20:40:00,
2013-10-14 16:12:00,56.0,-99.9,30.34,ESE,120,7.0,10.0,-999,-99.99,,,-99.99,,2013-10-14 21:12:00,
2013-10-14 16:22:00,56.0,-99.9,30.34,ESE,120,7.0,10.0,-999,-99.99,,,-99.99,,2013-10-14 21:22:00,
2013-10-14 16:34:00,56.0,-99.9,30.34,ESE,120,7.0,10.0,-999,-99.99,,,-99.99,,2013-10-14 21:34:00,
2013-10-14 16:40:00,55.0,-99.9,30.31,East,90,8.0,11.0,-999,-99.99,,,-99.99,,2013-10-14 21:40:00,
2013-10-14 17:13:00,55.0,-99.9,30.31,East,90,8.0,11.0,-999,-99.99,,,-99.99,,2013-10-14 22:13:00,
2013-10-14 17:24:00,55.0,-99.9,30.31,East,90,8.0,11.0,-999,-99.99,,,-99.99,,2013-10-14 22:24:00,
2013-10-14 17:33:00,55.0,-99.9,30.31,East,90,8.0,11.0,-999,-99.99,,,-99.99,,2013-10-14 22:33:00,
2013-10-14 17:40:00,54.0,-99.9,30.30,ENE,70,10.0,13.0,-999,-99.99,,,-99.99,,2013-10-14 22:40:00,
2013-10-14 18:12:00,54.0,-99.9,30.30,ENE,70,10.0,13.0,-999,-99.99,,,-99.99,,2013-10-14 23:12:00,
2013-10-14 18:22:00,54.0,-99.9,30.30,ENE,70,10.0,13.0,-999,-99.99,,,-99.99,,2013-10-14 23:22:00,
2013-10-14 18:34:00,54.0,-99.9,30.30,ENE,70,10.0,13.0,-999,-99.99,,,-99.99,,2013-10-14 23:34:00,
2013-10-14 18:40:00,54.0,-99.9,30.28,East,80,11.0,16.0,-999,-99.99,,,-99.99,,2013-10-14 23:40:00,
2013-10-14 19:12:00,54.0,-99.9,30.28,East,80,11.0,16.0,-999,-99.99,,,-99.99,,2013-10-15 00:12:00,
2013-10-14 19:22:00,54.0,-99.9,30.28,East,80,11.0,16.0,-999,-99.99,,,-99.99,,2013-10-15 00:22:00,
2013-10-14 19:32:00,54.0,-99.9,30.28,East,80,11.0,16.0,-999,-99.99,,,-99.99,,2013-10-15 00:32:00,
2013-10-14 19:40:00,55.0,-99.9,30.27,East,90,13.0,16.0,-999,-99.99,,,-99.99,,2013-10-15 00:40:00,
2013-10-14 20:12:00,55.0,-99.9,30.27,East,90,13.0,16.0,-999,-99.99,,,-99.99,,2013-10-15 01:12:00,
2013-10-14 20:22:00,55.0,-99.9,30.27,East,90,13.0,16.0,-999,-99.99,,,-99.99,,2013-10-15 01:22:00,
2013-10-14 20:32:00,55.0,-99.9,30.27,East,90,13.0,16.0,-999,-99.99,,,-99.99,,2013-10-15 01:32:00,
2013-10-14 20:40:00,55.0,-99.9,30.27,East,100,14.0,16.0,-999,-99.99,,,-99.99,,2013-10-15 01:40:00,
2013-10-14 21:12:00,55.0,-99.9,30.27,East,100,14.0,16.0,-999,-99.99,,,-99.99,,2013-10-15 02:12:00,
2013-10-14 21:22:00,55.0,-99.9,30.27,East,100,14.0,16.0,-999,-99.99,,,-99.99,,2013-10-15 02:22:00,
2013-10-14 21:32:00,55.0,-99.9,30.27,East,100,14.0,16.0,-999,-99.99,,,-99.99,,2013-10-15 02:32:00,
2013-10-14 21:40:00,56.0,-99.9,30.27,East,100,15.0,17.0,-999,-99.99,,,-99.99,,2013-10-15 02:40:00,
2013-10-14 22:12:00,56.0,-99.9,30.27,East,100,15.0,17.0,-999,-99.99,,,-99.99,,2013-10-15 03:12:00,
2013-10-14 22:23:00,56.0,-99.9,30.27,East,100,15.0,17.0,-999,-99.99,,,-99.99,,2013-10-15 03:23:00,
2013-10-14 22:34:00,56.0,-99.9,30.27,East,100,15.0,17.0,-999,-99.99,,,-99.99,,2013-10-15 03:34:00,
2013-10-14 22:40:00,57.0,-99.9,30.25,East,100,17.0,21.0,-999,-99.99,,,-99.99,,2013-10-15 03:40:00,
2013-10-14 23:14:00,57.0,-99.9,30.25,East,100,17.0,21.0,-999,-99.99,,,-99.99,,2013-10-15 04:14:00,
2013-10-14 23:24:00,57.0,-99.9,30.25,East,100,17.0,21.0,-999,-99.99,,,-99.99,,2013-10-15 04:24:00,
2013-10-14 23:34:00,57.0,-99.9,30.25,East,100,17.0,21.0,-999,-99.99,,,-99.99,,2013-10-15 04:34:00,